Weather History for Douglas, WY

Change the Weather History Date:

Monday, January 7, 2013

  Actual Average Record
Temperature  
Mean Temperature 28 °F 25 °F  
Max Temperature 46 °F 39 °F 63 °F (2003)
Min Temperature 10 °F 11 °F -21 °F (2010)
Degree Days  
Heating Degree Days 37 40  
Month to date heating degree days 315 282  
Since 1 July heating degree days 2942 3371  
Cooling Degree Days 0 0  
Month to date cooling degree days 0 0  
Year to date cooling degree days 0 0  
Moisture  
Dew Point 10 °F    
Average Humidity 46    
Maximum Humidity 67    
Minimum Humidity 25    
Precipitation  
Precipitation 0.00 in 0.00 in 0.15 in (1992)
Month to date precipitation T 0.07  
Year to date precipitation T 0.07  
Sea Level Pressure  
Sea Level Pressure 29.95 in    
Wind  
Wind Speed 7 mph (West)    
Max Wind Speed 25 mph    
Max Gust Speed 30 mph    
Visibility 10 miles    
Events      
T = Trace of Precipitation, MM = Missing Value Source: NWS Daily Summary

Daily Weather History Graph

Daily Weather History Graph

Search for Another Location

Airport:

Trip Planner

Search our weather history database for the weather conditions in past years. The results will help you decide how hot, cold, wet, or windy it might be!

Date:

Astronomy

Jan. 07, 2013 Rise Set
Actual Time 7:31 AM MST 4:44 PM MST
Civil Twilight 7:00 AM MST 5:16 PM MST
Nautical Twilight 6:24 AM MST 5:51 PM MST
Astronomical Twilight 5:50 AM MST 6:25 PM MST
Moon 2:57 AM MST (1/7) 12:58 PM MST (1/7)
Length of Visible Light 10h 16m
Length of Day
9h 12m
Waning Crescent, 22% of the Moon is Illuminated
Jan 7
Waning Crescent
Jan 11
New
Jan 18
First Quarter
Jan 26
Full
Feb 3
Last Quarter

Hourly Weather History & Observations

Time (MST) Temp. Windchill Dew Point Humidity Pressure Visibility Wind Dir Wind Speed Gust Speed Precip Events Conditions
12:53 AM 21.9 °F 12.5 °F 8.1 °F 55% 29.96 in 10.0 mi WSW 8.1 mph - N/A   Clear
1:53 AM 17.1 °F 6.6 °F 6.1 °F 62% 30.00 in 10.0 mi NNW 8.1 mph - N/A   Clear
2:53 AM 19.9 °F 12.1 °F 6.1 °F 55% 29.99 in 10.0 mi North 5.8 mph - N/A   Clear
3:53 AM 19.9 °F 12.1 °F 5.0 °F 52% 29.98 in 10.0 mi NW 5.8 mph - N/A   Clear
4:53 AM 12.9 °F - 3.0 °F 65% 30.02 in 10.0 mi Calm Calm - N/A   Clear
5:53 AM 14.0 °F - 3.9 °F 64% 30.03 in 10.0 mi Calm Calm - N/A   Clear
6:53 AM 14.0 °F - 3.0 °F 62% 30.04 in 10.0 mi Calm Calm - N/A   Clear
7:53 AM 12.9 °F - 1.9 °F 62% 30.10 in 10.0 mi Calm Calm - N/A   Clear
8:53 AM 18.0 °F 12.7 °F 6.1 °F 60% 30.12 in 10.0 mi South 3.5 mph - N/A   Clear
9:53 AM 26.1 °F 20.5 °F 9.0 °F 49% 30.09 in 10.0 mi South 4.6 mph - N/A   Clear
10:53 AM 30.9 °F 27.5 °F 10.0 °F 42% 30.06 in 10.0 mi Variable 3.5 mph - N/A   Clear
11:53 AM 35.1 °F 30.1 °F 12.9 °F 40% 29.99 in 10.0 mi SE 5.8 mph - N/A   Clear
12:53 PM 44.1 °F 39.0 °F 14.0 °F 30% 29.91 in 10.0 mi West 9.2 mph - N/A   Clear
1:53 PM 46.0 °F 39.0 °F 14.0 °F 28% 29.90 in 10.0 mi West 17.3 mph 24.2 mph N/A   Clear
2:53 PM 46.0 °F 39.9 °F 12.9 °F 26% 29.89 in 10.0 mi West 13.8 mph - N/A   Clear
4:53 PM 36.0 °F 33.3 °F 12.9 °F 39% 29.94 in 10.0 mi Variable 3.5 mph - N/A   Clear
5:53 PM 28.9 °F 19.8 °F 12.0 °F 49% 29.93 in 10.0 mi WNW 10.4 mph - N/A   Clear
6:53 PM 32.0 °F - 10.0 °F 40% 29.90 in 10.0 mi Calm Calm - N/A   Clear
7:53 PM 30.9 °F 24.3 °F 10.9 °F 43% 29.88 in 10.0 mi WSW 6.9 mph - N/A   Clear
8:53 PM 37.0 °F 27.7 °F 12.9 °F 37% 29.81 in 10.0 mi West 16.1 mph 25.3 mph N/A   Clear
9:53 PM 37.0 °F 28.1 °F 15.1 °F 41% 29.78 in 10.0 mi West 15.0 mph 20.7 mph N/A   Clear
10:53 PM 37.9 °F 30.5 °F 16.0 °F 41% 29.77 in 10.0 mi WSW 11.5 mph - N/A   Overcast
11:53 PM 36.0 °F 28.0 °F 17.1 °F 46% 29.74 in 10.0 mi West 11.5 mph - N/A   Clear